map of HSB home
HSB - Airport
Location
City:  Harrisburg, Illinois, United States
Name:Harrisburg-Raleigh Airport
ICAO:KHSB
IATA:HSB
FAA LID:HSB

Details
Type:Airport (Airfield)
Use:Public/Civil
Latitude:3748'41"N (37.811256)
Longitude:8833'01"W (-88.550259)
Datum:WGS 1984
Elevation:398 ft (121 m)
Variation:2.76W (WMM2015 magnetic declination)
-0.08 annual change
Runways:2
Longest:5013 × 75 ft (1528 × 23 m), paved

Time
Time Zone:UTC-6 (DST-5)
Local Time:

Weather
METAR:KHSB 150735Z AUTO 04015G22KT 7SM RA OVC008 08/08 A2987 RMK AO2 P0003 T00830083

Related Locations
Nearby:
Farthest:YAUG: 11098 mi / 17861 km
Augusta [Augusta Airport], WA, AU

Find:

   beyond  
but within

Other Information
Maps:
NOTAMs:
Links:
Sources:

  
  • flag of United States
  • flag of Illinois
  

Sectional Chart

Flight Planning
at skyvector.com

Satellite Image

Google Maps Satellite view

 

Copyright © 2004-2018 Karl L. Swartz. All rights reserved.
The Great Circle Mapper name and logo are trademarks of the Great Circle Mapper.
All other trademarks mentioned herein belong to their respective owners.
Please see credits for attibutions and further copyright information.

  Follow gcmap on Facebook Follow gcmap on Twitter Follow gcmap on Google+ GCmap on LinkedIn

hCard Microformat

Geo Microformat